Theta_e
312 311 312 313 313 313 310 310 311 313 313 315 315 315 315 315 314 313 315 329 341 341 339 339 339 343 344 346 347 348 348 348 346 347 347 346 345 343 343 342 342 342 344
313 311 312 311 314 313 311 311 312 313 313 313 314 315 315 314 314 314 314 316 332 339 339 337 337 339 342 344 343 346 348 347 348 347 346 345 345 344 342 342 341 344 343
312 311 312 311 313 315 311 311 314 314 312 313 312 314 314 314 314 314 313 312 316 330 338 339 337 337 339 341 342 344 346 345 346 346 345 345 344 344 344 343 344 343 341
315 312 312 310 313 313 310 312 312 312 310 311 311 312 312 312 312 314 314 312 313 316 326 339 340 336 337 337 339 342 345 345 344 344 344 344 345 344 345 345 344 343 341
316 312 312 310 309 313 312 310 315 310 310 310 313 314 313 310 311 315 313 313 311 314 315 328 337 340 338 336 337 338 343 343 343 342 342 342 343 343 344 345 343 342 340
317 313 313 313 311 312 310 309 309 310 311 310 315 314 311 311 311 310 312 314 312 313 312 317 323 328 339 336 337 337 338 341 342 342 341 340 340 340 343 344 342 341 339
315 314 314 312 311 313 309 309 310 309 309 310 308 308 309 310 309 310 310 310 312 312 312 312 316 323 328 339 338 336 336 337 340 341 341 339 339 341 341 341 340 340 338
316 314 312 312 311 309 307 308 308 307 308 310 307 303 301 305 307 310 309 310 312 314 315 317 315 321 323 325 329 337 334 336 338 338 340 337 338 337 337 337 337 338 338
316 314 316 313 312 310 309 308 309 307 307 308 309 306 300 297 302 306 308 309 309 310 311 315 317 320 321 321 328 330 335 335 335 338 338 337 338 337 337 336 337 338 335
317 318 316 315 313 311 310 309 312 310 308 306 307 310 307 306 302 299 305 307 308 310 310 312 315 317 318 318 326 330 330 334 333 332 335 334 334 336 336 336 337 337 335
315 316 316 314 312 310 310 310 310 310 309 307 306 306 306 305 305 302 302 301 307 308 310 312 311 313 317 318 318 323 332 332 333 333 332 334 335 336 336 337 337 336 336
312 313 315 314 312 311 310 310 310 310 310 308 308 307 306 304 303 301 304 301 306 307 309 311 309 310 313 316 322 326 328 329 328 329 329 331 332 334 335 336 336 336 336
310 310 310 311 311 310 311 310 310 311 310 308 308 307 307 307 306 305 306 306 307 306 306 310 312 309 311 313 316 325 327 328 327 326 327 329 329 327 332 335 335 334 335
312 313 310 311 311 312 314 313 310 310 309 308 308 307 307 308 308 306 308 307 305 305 303 306 306 309 311 312 317 325 320 327 326 324 323 326 328 328 329 330 332 332 332
314 313 312 312 313 312 314 312 309 309 308 308 309 308 307 312 309 308 308 306 307 300 300 307 304 310 310 314 316 317 316 326 327 324 324 324 326 327 327 328 328 328 327
313 313 313 313 312 312 312 312 310 309 308 308 309 308 309 308 309 308 307 305 306 302 303 307 309 313 311 315 317 315 316 321 322 323 325 324 324 325 325 325 324 324 325
313 312 312 312 312 312 314 312 310 310 311 311 312 310 310 310 309 308 308 307 307 308 306 309 312 307 309 311 315 315 318 318 320 323 325 323 322 322 323 323 323 324 324
311 310 311 312 314 312 313 312 312 311 313 312 313 312 309 313 310 308 308 307 307 308 308 303 308 304 307 313 315 318 320 323 323 324 323 321 320 320 320 320 320 320 319
312 312 312 313 314 314 314 313 314 311 311 310 311 312 307 308 309 309 310 309 309 311 306 305 306 306 306 313 316 317 317 319 322 323 321 320 319 318 318 317 317 316 314
311 309 309 311 314 314 314 315 312 310 311 313 311 311 308 307 308 307 309 308 308 309 309 309 309 308 308 313 317 314 314 316 316 318 319 318 318 317 316 316 317 316 313
313 312 310 309 312 313 314 312 308 310 307 309 313 311 309 311 316 313 310 308 307 308 308 309 309 308 311 313 312 313 312 311 308 308 307 308 309 309 312 315 318 317 312
312 312 312 313 311 315 310 310 310 310 311 310 312 310 310 313 309 312 315 314 312 310 308 308 309 310 310 311 312 309 307 304 302 305 303 303 305 304 306 307 312 311 310
309 310 312 312 312 309 307 307 309 307 307 307 311 308 311 313 311 310 312 313 313 313 312 310 308 308 308 307 306 302 300 299 299 302 302 298 302 301 304 309 309 309 308
308 309 311 311 309 311 308 304 307 307 307 306 308 308 310 305 306 309 309 313 312 311 312 313 308 308 309 310 309 307 306 308 309 304 306 302 305 302 305 305 308 308 307
307 309 310 310 307 308 306 302 304 308 306 305 308 313 312 309 302 304 314 311 306 304 311 309 308 305 305 307 309 309 305 303 302 304 305 308 309 308 307 311 309 308 306
308 312 312 310 310 312 305 301 301 304 303 304 306 312 308 308 301 303 312 308 303 302 303 302 303 305 304 308 309 309 307 304 303 303 306 305 310 311 306 309 310 313 307
Wind_Speed
1 1 3 3 4 2 3 4 4 5 5 6 5 5 6 6 6 2 2 7 8 6 6 7 10 14 16 15 16 18 17 16 16 16 16 16 16 15 15 15 15 15 16
3 1 2 3 3 2 4 3 3 4 3 4 6 6 6 5 6 6 3 4 8 8 11 13 13 12 16 16 17 18 17 18 20 19 18 17 17 16 17 17 17 19 18
3 3 3 2 4 3 5 4 3 3 4 3 4 5 5 6 5 6 5 4 5 9 12 11 12 14 13 14 17 18 18 19 19 19 19 20 19 18 18 19 20 20 19
6 4 3 4 4 4 3 3 3 3 3 4 4 5 4 5 6 7 5 4 4 4 7 13 13 12 15 15 16 17 17 19 20 21 19 20 20 21 21 19 22 21 20
5 3 3 5 3 3 4 2 2 1 3 4 5 5 5 5 6 5 7 6 6 5 4 10 14 15 16 15 16 17 17 20 20 20 22 20 19 21 20 21 22 22 22
5 4 4 5 2 2 2 2 2 2 3 3 4 6 6 5 4 4 5 5 5 6 5 6 5 7 16 16 15 16 17 18 19 22 22 22 23 22 22 22 23 23 22
6 5 4 4 4 4 4 3 2 2 3 1 2 4 4 5 4 3 4 4 6 5 4 4 4 4 6 17 14 15 17 18 20 22 22 23 26 28 23 22 20 22 21
6 4 4 4 3 3 4 2 2 1 2 1 1 0 4 6 4 5 4 4 5 5 5 5 4 6 6 5 9 15 16 16 17 19 19 22 24 21 17 17 20 22 25
6 5 6 5 4 3 3 3 3 3 2 2 3 3 2 3 4 4 5 3 6 5 5 5 5 3 5 5 8 11 15 14 17 16 17 16 19 23 24 18 20 25 26
5 6 6 5 5 3 4 4 4 3 3 4 2 3 3 4 4 5 3 4 5 6 6 4 4 4 3 3 10 14 13 14 16 15 17 15 13 17 20 25 28 29 25
5 6 5 6 6 4 4 5 5 5 3 3 3 3 4 2 4 4 6 4 4 4 6 7 5 4 4 4 5 8 15 15 13 12 15 15 17 18 17 21 26 26 28
5 6 6 6 6 5 5 5 6 5 4 4 4 4 4 3 3 4 4 4 8 7 5 5 5 5 5 4 8 14 15 12 12 12 12 12 15 20 22 21 25 25 25
4 6 4 5 4 5 6 5 5 5 4 4 5 4 4 5 4 4 3 6 6 3 4 5 6 5 5 4 6 11 14 15 13 10 10 12 16 13 18 19 22 22 25
6 7 6 5 6 6 6 5 4 4 3 4 8 5 4 5 4 4 4 3 5 3 3 6 3 4 4 5 9 16 6 12 11 12 9 10 14 22 22 15 19 19 21
5 7 6 6 6 7 5 4 4 5 4 5 6 6 4 5 4 5 4 4 4 3 3 3 3 4 4 4 7 5 6 11 13 9 10 10 12 11 13 18 17 15 15
7 7 6 6 6 6 5 5 4 5 4 5 4 5 5 3 4 3 4 4 4 4 3 2 2 3 4 2 5 5 4 5 7 8 11 10 11 11 19 19 20 19 16
9 6 7 6 6 5 6 6 5 6 5 6 4 3 6 4 2 3 3 3 4 5 6 3 2 3 2 3 3 4 3 3 3 9 10 11 15 19 19 18 14 13 16
6 8 6 6 5 5 6 6 5 4 5 5 4 3 4 3 4 5 3 4 4 4 4 4 1 2 4 2 5 8 4 3 5 9 17 18 16 19 18 16 14 11 12
7 5 6 5 4 3 6 6 6 5 6 2 3 3 3 3 4 3 2 2 0 1 1 2 3 1 3 2 7 7 6 10 8 17 16 16 14 14 14 13 13 12 11
4 4 5 5 5 2 4 6 5 6 5 2 2 2 2 2 3 2 4 2 3 2 2 2 3 2 2 1 4 7 8 6 7 7 10 9 9 12 12 12 12 11 10
4 5 4 6 6 4 4 6 5 6 4 2 1 2 2 1 2 0 3 3 3 2 3 3 7 3 3 5 7 4 6 5 5 4 4 4 4 4 4 8 8 10 9
4 5 6 6 6 3 8 7 7 6 5 5 3 5 3 1 5 6 1 6 5 2 3 4 3 6 7 5 5 5 5 4 3 2 4 3 3 1 1 2 5 7 9
4 3 5 3 4 5 9 8 10 6 6 3 3 4 1 3 1 2 3 5 3 4 3 3 4 3 4 3 4 4 3 3 3 3 4 2 2 2 3 3 5 7 9
4 3 4 4 5 4 6 9 11 6 5 5 4 3 3 2 2 1 5 1 5 4 2 5 6 5 4 6 5 4 5 4 4 3 3 3 3 3 3 4 10 12 11
5 3 4 4 5 4 7 8 8 5 4 4 2 4 3 3 2 6 3 4 3 4 6 9 8 7 6 9 8 6 3 3 2 2 2 2 2 2 2 3 4 13 12
4 3 4 2 6 5 8 11 7 3 4 3 2 5 9 5 4 1 5 6 4 1 3 4 3 5 6 7 9 6 6 4 2 1 4 4 2 3 1 3 4 4 6
Wind_Direction
134 330 315 343 318 333 301 327 340 337 328 316 318 341 330 323 310 264 268 294 293 261 244 231 245 233 225 222 215 206 193 190 189 185 188 189 184 190 189 186 182 181 165
166 243 302 333 322 323 308 321 318 322 329 323 322 333 328 331 321 306 277 270 290 269 264 273 254 247 238 222 225 218 203 201 195 191 192 193 183 188 197 191 193 180 169
205 240 272 299 291 293 313 347 344 17 321 311 332 327 321 321 319 318 296 263 261 269 269 239 239 239 259 250 237 229 219 215 211 202 195 192 188 189 198 200 192 174 170
202 215 242 273 274 304 302 325 315 315 317 341 312 302 303 302 307 309 304 278 257 243 257 242 228 235 237 240 244 247 230 227 222 212 206 203 194 192 196 204 189 180 173
202 204 210 251 280 295 318 318 312 262 295 313 306 304 304 296 291 304 299 296 279 251 236 249 237 220 225 241 241 239 237 231 233 223 212 209 212 210 201 193 191 185 175
197 213 246 242 243 268 293 310 271 285 243 277 308 307 293 283 288 289 295 302 280 264 241 238 242 226 213 221 232 236 238 231 232 235 222 210 212 228 206 200 194 189 183
219 212 256 271 235 224 229 255 262 261 309 323 337 321 301 289 298 317 311 341 339 318 278 244 248 230 226 215 221 229 233 234 230 236 231 220 211 214 214 209 202 194 183
222 218 232 245 233 240 266 266 203 268 254 299 315 292 335 329 332 310 334 348 356 346 338 327 269 232 214 216 198 219 231 234 231 238 234 228 224 212 228 224 215 186 162
242 231 240 230 234 202 233 262 230 207 229 298 210 205 325 263 322 316 328 334 331 325 307 302 316 267 232 201 216 227 234 237 245 241 234 231 228 216 211 202 210 178 170
245 240 249 238 225 221 232 236 222 224 166 238 316 222 237 188 236 315 312 314 323 315 301 283 271 297 262 239 229 217 237 231 239 246 244 226 218 214 210 203 193 171 180
256 268 240 234 225 220 242 248 250 227 202 196 191 240 242 234 228 236 291 297 294 281 275 254 239 250 265 211 218 225 225 225 226 230 244 236 212 212 206 200 187 179 179
283 269 249 227 233 227 234 241 243 237 223 231 227 218 216 204 224 219 258 285 287 288 268 251 235 220 220 226 224 219 223 229 233 215 223 222 219 223 199 195 192 187 180
262 267 260 238 241 239 253 246 241 234 233 226 239 234 217 219 197 208 236 269 278 295 281 253 247 215 215 200 232 234 237 235 216 206 204 185 164 217 247 212 198 194 185
249 253 243 241 249 255 253 227 222 239 244 255 258 243 243 236 203 197 219 230 282 260 301 255 285 237 213 188 211 226 225 226 195 201 187 189 191 201 225 220 206 194 176
257 252 232 239 235 241 247 244 228 244 238 256 254 265 245 253 224 224 214 199 218 272 285 307 297 323 239 192 200 200 214 222 191 185 180 192 191 197 154 174 155 139 152
239 241 244 243 251 260 255 222 234 243 253 268 258 272 276 272 253 224 217 204 201 206 262 252 317 322 313 168 210 173 164 168 184 181 177 170 149 143 142 137 144 150 174
254 227 231 254 246 251 254 245 230 250 252 269 283 270 280 282 254 243 227 204 217 208 241 268 269 297 322 107 131 121 140 154 215 200 146 140 152 136 131 136 150 165 178
248 225 220 238 241 246 256 247 238 231 236 272 308 249 296 327 250 247 229 235 227 236 215 233 10 316 11 33 93 117 101 113 89 119 125 114 119 124 131 144 146 156 146
267 250 236 219 220 257 273 261 220 206 229 253 299 251 301 333 317 282 269 293 255 29 77 167 182 58 2 7 92 89 93 87 95 102 110 110 119 125 129 135 138 143 144
276 250 258 243 238 280 270 263 230 191 219 208 299 196 253 5 310 316 42 186 56 15 336 324 135 114 104 1 90 105 85 68 79 73 75 93 111 115 119 125 136 142 142
245 250 255 245 227 229 247 251 197 176 189 207 21 305 213 251 322 354 161 137 105 351 343 337 113 130 138 106 114 89 98 88 48 53 62 45 75 80 116 128 147 153 156
322 286 262 240 224 228 236 251 194 177 184 217 80 297 244 37 9 37 140 170 142 146 6 47 65 96 91 95 115 115 114 96 86 350 70 34 64 98 136 160 172 164 176
303 307 325 303 247 239 235 233 177 174 161 172 204 245 22 93 17 22 52 57 356 220 160 125 77 59 86 128 119 108 95 108 148 181 98 151 150 186 201 193 187 187 188
311 321 307 316 269 253 229 222 165 163 156 182 197 218 224 125 301 174 116 58 32 39 299 165 163 168 166 170 144 150 147 121 57 92 116 147 162 208 173 212 197 197 196
284 292 284 318 294 260 212 203 156 154 171 208 230 222 236 177 229 288 165 141 36 21 62 77 98 113 187 172 146 111 121 104 59 209 218 109 181 154 168 213 212 206 200
276 281 319 268 309 269 207 207 165 149 166 186 222 250 245 176 174 88 133 146 134 230 51 43 47 58 63 92 137 144 145 139 153 149 218 164 151 136 208 221 202 193 204